Regional Weather Roundup
Issued by NWS

Home | Current Version | Previous Version | Graphics & Text | Print | Product List | Glossary On
Versions: 1 2 3 4 5 6 7 8 9 10 11 12 13 14 15 16 17 18 19 20 21 22 23 24 25 26 27 28 29 30 31 32 33 34 35 36 37 38 39 40 41 42 43 44 45 46 47 48 49 50
000
ASUS45 KBOU 022110
RWRCO

WEATHER ROUNDUP FOR COLORADO
NATIONAL WEATHER SERVICE DENVER/BOULDER CO
300 PM MDT THU JUL 02 2015

NOTE: "FAIR" INDICATES FEW OR NO CLOUDS BELOW 12000 FEET WITH NO
SIGNIFICANT WEATHER AND/OR OBSTRUCTIONS TO VISIBILITY.

COZ001>005-013-030-031-022200-
...NORTHWEST COLORADO...

CITY           SKY/WX    TMP DP  RH WIND       PRES   REMARKS
CRAIG          MOSUNNY   89  38  16 N10       30.17F
HAYDEN         MOSUNNY   84  36  17 NE8       30.20F
MEEKER         MOSUNNY   89  43  20 NW7       30.17F
MOUNT WERNER   NOT AVBL
STEAMBOAT SPGS SUNNY     86  35  16 W10       30.21F
WALDEN         MOSUNNY   77  32  19 N7        30.33F
$$

COZ006>008-011-022200-
...WEST CENTRAL VALLEYS...

CITY           SKY/WX    TMP DP  RH WIND       PRES   REMARKS
GRAND JUNCTION PTSUNNY   93  48  21 SW13      30.03F
MONTROSE       CLOUDY    87  48  25 N7        30.13F
EAGLE          MOSUNNY   82  46  28 E9        30.19F
RIFLE          MOSUNNY   92  44  19 N7        30.08F
DELTA          CLOUDY    94  51  23 SE8       30.07F
NUCLA          CLOUDY    88  50  27 N9        30.17F
$$

COZ017>023-064>068-022200-
...SOUTHWEST COLORADO...

CITY           SKY/WX    TMP DP  RH WIND       PRES   REMARKS
DURANGO        MOSUNNY   83  52  34 W10       30.18S
CORTEZ         SUNNY     91  51  25 W13G21    30.13F
PAGOSA SPRINGS PTSUNNY   75  49  39 N8G17     30.28R
TELLURIDE      PTSUNNY   74  53  48 NW7G17    30.40F THUNDER
WOLF CREEK PAS NOT AVBL
$$

COZ009-010-012-014-032>034-037-058>063-022200-
...CENTRAL COLORADO...

CITY           SKY/WX    TMP DP  RH WIND       PRES   REMARKS
ASPEN          PTSUNNY   82  47  29 NW12G18   30.27F
BUENA VISTA    PTSUNNY   77  49  36 SE15      30.32S THUNDER
COPPER MTN     CLOUDY    59  39  47 W28       30.66S
BERTHOUD PASS  TSTM      45  36  70 E5G22     30.71S
COTTONWOOD PAS NOT AVBL
GUNNISON       PTSUNNY   81  48  32 SW10      30.27F THUNDER
KREMMLING      MOSUNNY   82  27  13 N21       30.27S
LEADVILLE      PTSUNNY   70  42  36 W13       30.44F
MONARCH PASS   CLOUDY    52  39  62 NW7       30.74F
SALIDA         PTSUNNY   64  54  70 SE14G22   30.37S
SUNLIGHT       MOSUNNY   72  46  40 SW3       30.58S
WILKERSON PASS PTSUNNY   50  43  76 E14       30.62S THUNDER
$$

COZ069>075-022200-
...SAN LUIS VALLEY/SANGRE DE CRISTO MOUNTAINS...

CITY           SKY/WX    TMP DP  RH WIND       PRES   REMARKS
ALAMOSA        PTSUNNY   77  50  38 SE6       30.25F
LA VETA PASS   PTSUNNY   59  52  77 MISG      30.51F
SAGUACHE       CLOUDY    77  54  44 S9        30.31R
$$

COZ035-036-038>040-022200-
...NORTHERN COLORADO FRONT RANGE...

CITY           SKY/WX    TMP DP  RH WIND       PRES   REMARKS
DENVER INTL AP MOSUNNY   81  49  32 SE8       30.18F
DMNS CITY PARK   N/A     80  48  32 W2        30.18F
AURORA         MOSUNNY   80  54  39 CALM      30.21F
FRONT RANGE AP MOSUNNY   81  50  34 CALM      30.20F
ERIE MUNI ARPT MOSUNNY   83  45  26 NE3       30.17S
BOULDER MUN AP MOSUNNY   82  48  30 CALM      30.18S
CENTENNIAL     MOSUNNY   77  50  38 NE6       30.22F
BROOMFIELD     PTSUNNY   81  50  34 SW7       30.21F
FORT COLLINS   SUNNY     82  54  36 SW6       30.15F
LONGMONT       SUNNY     87  49  26 NW3       30.18F
$$

COZ041-046-047-076>085-087-088-022200-
...PIKES PEAK/PALMER DIVIDE AND SOUTHERN FOOTHILLS...

CITY           SKY/WX    TMP DP  RH WIND       PRES   REMARKS
COLO. SPRINGS  CLOUDY    74  53  48 CALM      30.27S
A. F. ACADEMY  CLOUDY    72  52  49 W3        30.27F
ELLICOTT       CLOUDY   N/A N/A N/A SW6       30.25F
FALCON         CLOUDY    75  51  43 CALM      30.32S
FORT CARSON    CLOUDY    71  59  67 SW6       30.24F
LIMON          SUNNY     78  57  48 VRB7      30.20F
MONUMENT HILL  MOSUNNY   72  52  49 CALM      30.32F
TRINIDAD       MOSUNNY   75  56  51 CALM      30.22F
$$

COZ042>045-048>051-090-091-022200-
...NORTHEAST COLORADO...

CITY           SKY/WX    TMP DP  RH WIND       PRES   REMARKS
GREELEY ARPT   SUNNY     82  55  39 SE5       30.16S
AKRON          SUNNY     81  56  42 N6G18     30.14F
BURLINGTON     MOSUNNY   83  58  42 NW13      30.11F
WRAY           SUNNY     88  55  32 N14G20    30.08F
STERLING       SUNNY     82  55  39 NE13        N/A
HOLYOKE        SUNNY     86  54  32 N14G20    30.09F
FORT MORGAN    SUNNY     84  50  30 N6        30.13F
$$

COZ086-089-092>099-022200-
...SOUTHEAST COLORADO...

CITY           SKY/WX    TMP DP  RH WIND       PRES   REMARKS
PUEBLO         PTSUNNY   80  57  45 SW7       30.16F
LA JUNTA       MOSUNNY   83  57  41 N9        30.13F
LAMAR          MOSUNNY   89  56  32 N17G23    30.06S
SPRINGFIELD      N/A     83  58  42 VRB5      30.10F
$$



USA.gov is the U.S. government's official web portal to all federal, state and local government web resources and services.